(32) Pomona
ephemeris date magn radius delta ra dec elong phase
Today24 Jan 202513.52.795 AU3.312 AU23h36m-00°00'50.7°15.8°
Opposition7 Dec 202511.32.688 AU1.705 AU05h02m+17°40'174.9°1.9°
(32) Pomona - 2025-01-24
astro.vanbuitenen.nl


 
-1 year
-1 month
-1 day
Now
+1 day
+1 month
+1 year

The interactive orbit chart above shows the body's path through the solar system and its position at the given date. Green and blue lines are shown perpendicular to the ecliptic plane: Green if the path is above the ecliptic plane, blue if it is below. (Left-click and drag to rotate the view; Right-click and drag to move the view; Use scroll wheel to zoom in our out.)

The orbital elements of Pomona are:

            e (Eccentricity)                : 0.0816492
            a (Semimajor axis)              : 2.5867736
            i (Inclination)                 : 5.52221
            Ω (Longitude of ascending node) : 220.36153
            ω (Argument of perihelion)      : 338.14768
            M (Mean anomaly)                : 146.94438
            Epoch                           : 2024 Oct 17

            L (Longitude of perihelion)     : 198.60113
            B (Latitude of perihelion)      : -2.05271
            P (Orbital period in years)     : 4.16            
        

The light curve chart below shows the estimated development of the minor planet's magnitude.


The all-sky chart below shows the path of the minor planet over the same period as the light curve. The current position is marked yellow.





The following chart shows the path of the minor planet in the next few days. The field of view is optimized for (~10x50) binoculars and finderscopes. A more printer-friendly version of the same chart can be found below.




Ephemerides:
Date       Time       RA (2000)    DEC (2000)    delta   radius  elong  phase   PA    magn
2025-01-24 00:00 UT   23 36 29.2   +00 00 16     3.312    2.795   50.7   15.8    65   13.5 
2025-01-24 17:09 UT   23 37 26.5   +00 04 54     3.320    2.796   50.3   15.7    65   13.5 
2025-01-25 00:00 UT   23 37 49.5   +00 06 59     3.323    2.796   50.1   15.7    65   13.5 
2025-01-26 00:00 UT   23 39 10.1   +00 14 16     3.334    2.796   49.4   15.5    65   13.5 
2025-01-27 00:00 UT   23 40 31.1   +00 21 36     3.345    2.796   48.8   15.4    65   13.5 
2025-01-28 00:00 UT   23 41 52.3   +00 28 60     3.356    2.796   48.1   15.2    65   13.5 
2025-01-29 00:00 UT   23 43 13.9   +00 36 26     3.366    2.796   47.5   15.0    65   13.5 
2025-01-30 00:00 UT   23 44 35.7   +00 43 55     3.377    2.796   46.8   14.9    65   13.5 
2025-01-31 00:00 UT   23 45 57.9   +00 51 27     3.387    2.796   46.2   14.7    64   13.5 
2025-02-01 00:00 UT   23 47 20.3   +00 59 02     3.397    2.796   45.5   14.6    64   13.5 
2025-02-02 00:00 UT   23 48 42.9   +01 06 39     3.407    2.796   44.9   14.4    64   13.5 
2025-02-03 00:00 UT   23 50 05.9   +01 14 18     3.417    2.797   44.2   14.2    64   13.5 
2025-02-04 00:00 UT   23 51 29.1   +01 22 01     3.427    2.797   43.6   14.1    64   13.5 
2025-02-05 00:00 UT   23 52 52.6   +01 29 45     3.437    2.797   42.9   13.9    64   13.5 
2025-02-06 00:00 UT   23 54 16.3   +01 37 32     3.447    2.797   42.3   13.7    64   13.5 
2025-02-07 00:00 UT   23 55 40.2   +01 45 21     3.456    2.797   41.6   13.5    64   13.5 
2025-02-08 00:00 UT   23 57 04.4   +01 53 12     3.466    2.797   41.0   13.4    64   13.5 
2025-02-09 00:00 UT   23 58 28.8   +02 01 05     3.475    2.797   40.4   13.2    64   13.5 
2025-02-10 00:00 UT   23 59 53.5   +02 09 01     3.484    2.797   39.7   13.0    64   13.5 
2025-02-11 00:00 UT   00 01 18.4   +02 16 58     3.493    2.797   39.1   12.9    64   13.5 
2025-02-12 00:00 UT   00 02 43.5   +02 24 57     3.502    2.797   38.5   12.7    64   13.5 
2025-02-13 00:00 UT   00 04 08.8   +02 32 58     3.511    2.797   37.8   12.5    64   13.5 
2025-02-14 00:00 UT   00 05 34.3   +02 41 01     3.520    2.797   37.2   12.3    64   13.5 
2025-02-15 00:00 UT   00 07 00.1   +02 49 05     3.528    2.797   36.6   12.1    64   13.5 


    Terminology:
            
    delta:  distance between minor planet and earth in AU
    radius: distance between minor planet and sun in AU
    magn:   magnitude (brightness) estimate    
    ra:     right ascension in hours (24h = 360deg)
    dec:    declination in degrees
    elong:  elongation in degrees (angle sun-earth-minor planet)    
    phase:  phase angle in degrees (angle sun-minor planet-earth)        
    AU:     Astronomical Unit (mean distance between earth and sun: 149597870.7 km
    

Orbital elements provided by the MPC (Minor Planet Center).
Calculations by a modified version of AAPlus, a C# implementation of the AA+ project by PJ Naughter from the algorithms presented in the book "Astronomical Algorithms" by Jean Meeus.
NGC2000 dso catalog and star labels from VizieR as provided by the Strasbourg astronomical Data Center.
Tycho2 catalog from the ESO archive.